Hourly Data Report for October 22, 2016

All times are specified in Local Standard Time (LST). Add 1 hour to adjust for Daylight Saving Time where and when it is observed.

MONCTON INTL A
NEW BRUNSWICK

46°06'44.000" N
64°40'43.000" W
70.70 m
8103201
71705
YQM

Download Data

Hourly Data (October 2016)
Hourly Data Report for October 22, 2016
Temp Definition
°C
Dew Point Temp Definition
°C
Rel Hum Definition
%
Wind Dir Definition
10's deg

Wind Spd Definition
km/h
Visibility Definition
km
Stn Press Definition
kPa
Hmdx Definition


Wind Chill Definition


Weather Definition


TIME
00:00 Legend Double Dagger 14.9 14.6 98 8 13 2.8 99.93     Drizzle,Fog
01:00 Legend Double Dagger 15.0 14.7 98 8 13 12.9 99.80     LegendNANA
02:00 Legend Double Dagger 15.3 15.0 98 8 13 19.3 99.69     Cloudy
03:00 Legend Double Dagger 15.6 15.3 98 8 16 19.3 99.51     LegendNANA
04:00 Legend Double Dagger 15.8 15.3 97 8 14 24.1 99.36     Rain
05:00 Legend Double Dagger 15.7 15.1 96 8 28 19.3 99.13     Rain
06:00 Legend Double Dagger 15.3 14.8 97 10 35 19.3 98.98     Rain
07:00 Legend Double Dagger 15.6 15.1 97 8 29 16.1 98.80     Moderate Rain
08:00 Legend Double Dagger 15.4 14.9 97 9 20 12.9 98.68     Moderate Rain
09:00 Legend Double Dagger 16.1 15.8 98 10 16 19.3 98.58     Rain
10:00 Legend Double Dagger 17.3 16.8 97 12 22 19.3 98.49     Rain
11:00 Legend Double Dagger 18.2 17.7 97 12 18 19.3 98.44     Rain
12:00 Legend Double Dagger 19.0 18.4 96 14 20 19.3 98.34     LegendNANA
13:00 Legend Double Dagger 19.7 18.9 95 16 23 19.3 98.25     LegendNANA
14:00 Legend Double Dagger 20.2 19.2 94 16 12 24.1 98.17 27   Cloudy
15:00 Legend Double Dagger 20.4 19.6 95 14 12 24.1 98.10 28   Rain
16:00 Legend Double Dagger 20.3 19.7 96 13 12 24.1 98.00 28   Rain
17:00 Legend Double Dagger 19.8 19.2 96 10 22 24.1 97.78     Rain
18:00 Legend Double Dagger 19.2 18.7 97 13 11 24.1 97.93     LegendNANA
19:00 Legend Double Dagger 18.8 18.5 98 17 9 24.1 98.02     LegendNANA
20:00 Legend Double Dagger 19.0 18.2 95 17 17 24.1 98.04     Mostly Cloudy
21:00 Legend Double Dagger 18.9 17.6 92 20 18 24.1 98.08     LegendNANA
22:00 Legend Double Dagger 18.2 16.2 88 19 21 24.1 98.13     LegendNANA
23:00 Legend Double Dagger 17.4 14.7 84 20 33 24.1 98.17     Mostly Cloudy

Notes on Data Quality.

Legend

  • E = Estimated
  • M = Missing
  • NA = Not Available
  • ‡ = Partner data that is not subject to review by the National Climate Archives
Date modified: